User: anonymous
Location: Unspecified
(0.0000°N, 0.0000°E)
Time: 01:56:47
(UTC+02:00)
Language:

deb Ariane - Orbit

View from above orbital plane
View from above orbital plane
View from above satellite
View from above satellite

Ground track
Ground track

The orbit data is extracted from the following two-line orbital elements,

1 25668U 92060E   14273.63187815  .00566480 -18450-6  13952-2 0  6645
2 25668 007.4311 102.0356 5331310 125.2540 342.8726 05.25303549252071
Epoch (UTC): 30 September 2014 15:09:54
Eccentricity: 0.5331310
inclination: 7.4311°
perigee height: 148 km
apogee height: 15052 km
right ascension of ascending node: 102.0356°
argument of perigee: 125.2540°
revolutions per day: 5.25303549
mean anomaly at epoch: 342.8726°
orbit number at epoch: 25207

The dashed part of the orbit path shows where the satellite is in the earth's shadow,  

DLR